Location: Newark
(13.2833°S, 176.1833°W)
Time: 12:34:32
(UTC+00:00)

N. Korean satellite - Visible Passes

Search period start: 20 November 2019 00:00
Search period end: 30 November 2019 00:00
Orbit: 456 x 506 km, 97.2° (Epoch: 20 November)

Date Brightness Start Highest point End Pass type
(mag) Time Alt. Az. Time Alt. Az. Time Alt. Az.
21 Nov 10.2 06:14:59 10° SW 06:16:31 12° WSW 06:18:05 10° WNW visible
21 Nov 9.5 16:34:51 10° NE 16:37:40 23° ESE 16:40:30 10° SSE visible
25 Nov 9.8 16:27:09 10° ENE 16:29:28 17° ESE 16:31:47 10° SE visible
29 Nov 10.0 16:19:41 10° ENE 16:21:13 13° ESE 16:22:46 10° SE visible
